Location: Ashtead
(51.3000°N, 0.3000°W)
Time: 12:15:09
(UTC+00:00)

Resurs 1-4 Rocket - Pass Details

Date: 26 September 2023
Orbit: 800 x 812 km, 98.7° (Epoch: 28 November)

Event Time Altitude Azimuth Distance (km) Brightness Sun altitude
Rises 01:37:12 0° 18° (NNE) 3,323 6.2 -35.2°
Reaches altitude 10° 01:39:36 10° 22° (NNE) 2,388 5.3 -35.0°
Enters shadow 01:43:00 38° 43° (NE) 1,214 3.3 -34.7°
